Regional Weather Roundup
Issued by NWS Green Bay, WI

Home | Current Version | Previous Version | Text Only | Print | Product List | Glossary On
Versions: 1 2 3 4 5 6 7 8 9 10 11 12 13 14 15 16 17 18 19 20 21 22 23 24 25 26 27 28 29 30 31 32 33 34 35 36 37 38 39 40 41 42 43 44 45 46 47 48 49 50
000
ASUS43 KGRB 171759
RWRGRB

NORTH-CENTRAL AND NORTHEAST WISCONSIN REGIONAL WEATHER ROUNDUP
NATIONAL WEATHER SERVICE GREEN BAY WI
100 PM CDT THU APR 17 2014

WIZ005-009-010>012-018-019-171900-
NORTH CENTRAL WISCONSIN

CITY           SKY/WX    TMP DP  RH WIND       PRES   REMARKS
IRONWOOD       CLOUDY    34  28  80 W9        30.12R
MANITOWISH WTR NOT AVBL
ARBOR VITAE    NOT AVBL
EAGLE RIVER    NOT AVBL
LAND O LAKES   NOT AVBL
RHINELANDER    CLOUDY    35  32  88 W7        30.12R FOG
PHILLIPS       NOT AVBL
ANTIGO         NOT AVBL
TOMAHAWK       NOT AVBL
MERRILL        NOT AVBL
$$

WIZ013-073-171900-
NORTHEAST WISCONSIN

CITY           SKY/WX    TMP DP  RH WIND       PRES   REMARKS
IRON MOUNTAIN  CLOUDY    35  30  82 SE3       30.13R
MARINETTE      CLOUDY    39  32  75 S10       30.13F
$$

WIZ017-030-035>037-045-171900-
CENTRAL WISCONSIN

CITY           SKY/WX    TMP DP  RH WIND       PRES   REMARKS
MEDFORD        NOT AVBL
WAUSAU         CLOUDY    41  34  76 W14       30.11R
MOSINEE        NOT AVBL
MARSHFIELD     CLOUDY    41  35  79 W13       30.15R
WISC RAPIDS    CLOUDY    47  33  58 W12       30.16R
STEVENS POINT  NOT AVBL
WAUPACA        NOT AVBL
SHAWANO        NOT AVBL
CLINTONVILLE   NOT AVBL
$$

WIZ038-039-048-051-171900-
FOX VALLEY

CITY           SKY/WX    TMP DP  RH WIND       PRES   REMARKS
NWS GREEN BAY  PTSUNNY   49  38  65 S8        30.12S
APPLETON       PTSUNNY   48  34  57 SW7       30.12R
OSHKOSH        PTSUNNY   50  39  66 SW9       30.12R
FOND DU LAC    CLOUDY    48  37  65 SW10      30.14R
$$

WIZ022-050-052-171900-
EAST CENTRAL WISCONSIN

CITY           SKY/WX    TMP DP  RH WIND       PRES   REMARKS
STURGEON BAY   CLOUDY    41  34  75 S13       30.14F
MANITOWOC      NOT AVBL
SHEBOYGAN      CLOUDY    50  39  66 SW13      30.14R
$$

LMZ563-521-522-541>543-171900-
LAKESHORE

STATION/POSITION TIME  TEMP    WIND        PRES    VSBY  WAVE
                       AIR SEA DIR/SP/G                  HT/PER
                 (UTC) (F)     (DEG/KT/KT) (MB)    (MI)  (FT/S)
SHEBOYGAN LKSHOR 1700   38     160/ 14/ 15 1021.3R
KEWAUNEE LKSHORE 1700   38     170/ 16/ 19 1021.3S
NORTHPORT PIER   1700   35     150/  6/  9 1021.3F
SISTER BAY LKSHO 1700   41     120/ 12/ 15   N/A
MENOMINEE LKSHOR 1700   36     150/  7/ 10 1021.1S
$$



USA.gov is the U.S. government's official web portal to all federal, state and local government web resources and services.